Theta_e
304 303 302 301 299 297 292 290 288 285 284 283 282 282 282 282 282 283 282 283 283 282 283 283 281 282 281 281 281 281 280 281 279 278 279 281 280 280 280 281 281 280 280
303 302 300 298 296 293 292 288 285 284 283 282 281 281 280 281 281 282 281 282 281 281 280 281 280 279 279 280 279 279 278 279 279 277 278 279 279 280 279 279 279 279 280
302 300 298 296 292 290 288 287 284 282 281 281 281 280 280 280 281 280 281 281 281 281 281 280 279 279 278 278 278 278 277 278 278 278 277 278 279 279 278 278 278 279 279
300 298 296 293 292 290 287 284 283 282 281 280 280 279 279 280 280 280 280 280 280 280 280 279 279 279 278 278 278 278 277 277 277 278 278 277 277 278 277 276 275 278 277
297 296 295 293 291 288 285 283 282 281 280 280 279 279 279 279 280 280 280 279 278 278 278 279 279 279 280 279 278 277 278 278 278 278 277 277 277 276 275 276 275 276 277
296 294 294 291 287 285 284 282 281 280 280 279 279 279 279 279 283 283 281 280 279 278 277 277 278 279 279 280 280 280 280 279 278 278 278 276 276 276 276 275 274 274 272
293 292 290 288 286 284 283 282 281 280 280 279 279 279 278 279 284 284 282 280 278 278 277 277 277 277 278 278 280 280 281 281 281 279 277 277 276 276 276 274 275 273 272
291 289 288 286 285 284 283 281 281 280 279 278 278 278 278 279 285 284 282 279 279 278 278 278 277 276 277 278 278 279 279 279 280 279 278 278 277 277 277 276 274 273 274
289 288 287 286 284 283 282 281 281 279 279 279 279 278 279 279 285 285 282 279 278 278 279 278 277 276 278 280 277 277 276 277 279 281 280 280 280 281 280 275 270 269 268
288 288 287 286 285 283 283 281 282 281 280 279 279 279 279 279 285 285 282 279 278 278 278 277 279 277 279 280 276 275 274 275 276 275 277 279 280 278 278 275 272 268 268
288 287 286 285 285 284 283 283 282 281 280 279 278 279 280 281 282 286 285 280 279 279 277 276 277 280 280 281 281 276 276 278 277 275 276 276 275 275 274 274 273 271 268
286 285 284 284 284 284 283 282 281 280 279 278 278 279 279 280 281 286 286 284 284 280 279 278 277 280 281 281 280 281 281 280 277 277 276 275 274 274 274 273 273 272 271
284 283 283 283 283 283 282 281 280 280 279 278 278 278 278 278 279 284 286 287 285 281 281 280 280 280 281 281 282 281 279 278 278 276 275 274 274 275 273 271 271 271 270
282 282 282 282 282 282 283 281 281 279 279 279 278 279 279 278 278 279 283 286 285 283 282 282 281 280 281 280 278 280 279 279 278 276 275 275 274 270 269 270 268 268 266
282 281 282 283 282 281 282 281 281 282 282 280 280 281 280 277 278 280 282 283 285 285 283 281 279 279 277 277 277 277 277 278 277 277 276 274 271 271 270 270 268 265 263
281 281 282 282 282 281 280 280 283 283 283 284 284 283 282 283 283 282 283 284 285 286 283 280 278 277 277 277 276 276 276 276 277 275 274 273 271 270 269 269 267 264 262
282 281 281 280 280 280 279 279 278 280 283 283 284 284 284 283 284 284 283 283 284 285 281 280 279 278 277 277 278 277 276 275 275 274 273 271 270 269 267 265 265 264 263
282 281 281 281 281 280 280 280 280 279 278 278 282 283 283 284 284 284 284 283 281 282 281 281 278 278 278 278 277 277 277 276 274 272 271 270 269 267 265 264 264 262 261
281 281 282 282 282 281 281 280 280 280 280 280 281 282 282 284 284 284 285 282 281 280 281 281 279 278 278 278 278 277 277 275 272 270 270 268 267 265 264 264 263 262 261
280 280 282 282 281 280 280 279 279 279 278 279 279 280 281 281 281 281 282 282 282 282 282 281 282 280 279 278 277 276 275 273 271 269 268 267 265 264 263 262 261 260 259
278 277 278 279 279 279 279 278 278 278 277 277 278 279 280 278 278 280 281 282 282 281 281 281 281 281 279 277 276 274 273 271 269 267 266 265 264 262 262 262 261 260 259
275 276 275 277 276 276 276 276 276 276 276 275 276 276 277 276 277 276 277 279 281 281 281 281 280 276 275 274 273 272 270 268 266 265 264 263 262 262 261 260 259 259 258
273 273 273 272 273 270 271 273 272 273 273 273 272 271 270 270 272 273 274 274 273 270 270 270 271 269 268 268 269 269 268 266 265 265 263 262 261 260 259 259 258 256 256
269 269 269 268 267 268 268 268 268 265 266 267 267 267 267 267 267 267 265 265 266 265 264 262 263 264 263 264 265 266 267 266 265 263 263 261 260 259 259 257 257 256 255
266 266 265 266 266 265 266 265 265 265 265 265 265 265 265 264 263 263 263 261 260 261 260 261 262 263 262 262 262 262 263 264 261 261 261 260 258 258 256 256 255 255 254
263 263 263 263 263 263 263 263 263 263 262 263 262 262 262 261 261 262 261 259 258 258 259 258 258 258 260 261 260 261 263 263 259 260 258 258 257 256 255 254 253 253 253
Wind_Speed
12 12 10 9 9 9 8 8 8 9 9 9 10 10 10 9 8 8 9 9 9 7 6 7 7 6 5 5 4 3 4 2 5 3 1 3 2 0 2 3 3 4 6
12 11 11 9 9 9 8 9 9 10 10 10 10 10 9 9 9 10 10 8 9 8 7 8 7 5 6 5 4 5 3 4 3 5 2 2 3 2 3 6 4 3 6
11 11 11 11 11 10 8 9 10 10 10 9 9 10 9 9 9 9 9 10 9 7 7 7 7 7 6 4 4 4 3 4 4 3 2 1 1 1 3 4 4 5 4
11 11 11 11 11 10 10 10 10 10 10 10 9 9 9 9 9 9 9 10 8 7 6 6 6 6 7 6 4 4 4 4 4 2 1 1 1 1 2 4 5 4 7
12 12 12 10 9 10 10 11 10 10 10 11 11 9 9 9 8 10 9 10 10 9 7 6 5 5 9 7 5 5 6 4 3 2 2 2 2 2 3 3 5 7 7
13 12 10 11 11 11 11 11 11 10 10 11 11 13 12 8 18 19 13 10 10 11 10 7 6 6 7 12 9 10 8 6 4 3 3 2 2 2 2 3 5 6 6
11 10 10 12 12 12 12 12 12 12 12 12 11 11 11 10 23 21 19 9 9 10 11 10 7 5 8 7 10 11 9 9 7 5 3 4 2 3 2 4 5 5 7
12 10 11 12 12 12 12 12 12 11 12 11 11 11 11 10 24 24 22 10 9 9 10 10 9 9 10 9 8 8 8 7 7 5 5 3 3 2 3 3 4 6 7
13 13 13 13 13 13 13 13 11 11 11 12 12 13 13 10 25 25 19 9 9 9 9 10 9 10 14 17 9 8 7 7 9 14 12 10 9 12 7 1 3 4 6
13 13 12 13 13 14 13 13 12 11 10 9 11 12 13 13 25 26 20 8 9 8 8 8 14 10 17 20 10 9 8 8 7 4 5 9 9 5 8 5 3 4 5
8 9 11 12 12 12 12 10 11 11 10 10 11 10 11 12 17 27 26 10 9 8 7 8 7 20 18 20 19 10 10 6 9 5 5 5 4 4 4 4 5 5 5
8 10 10 11 9 9 12 10 11 11 11 11 10 9 9 10 15 24 28 20 15 9 9 8 8 19 21 21 17 19 18 13 5 7 7 6 6 6 6 4 4 4 5
8 8 9 9 9 10 11 11 10 11 10 10 10 11 9 8 7 22 26 26 19 9 6 10 16 19 21 19 23 21 15 8 8 6 7 7 7 4 4 2 4 5 7
7 8 8 9 9 9 7 8 8 9 9 9 10 10 8 7 8 8 10 14 19 15 14 10 12 14 15 13 8 14 10 9 9 8 8 7 4 4 4 4 3 4 4
6 6 7 7 9 9 8 8 8 9 11 10 10 10 11 10 12 16 15 11 11 15 12 7 8 8 8 8 8 9 9 9 10 9 8 6 5 5 5 5 5 3 5
6 5 5 5 5 5 5 5 11 10 16 17 15 12 8 14 15 24 26 26 27 25 10 9 10 10 10 9 10 10 10 11 10 8 8 7 7 6 5 4 4 4 5
4 4 4 4 5 6 6 6 6 8 13 17 18 18 18 12 16 20 24 26 26 22 11 10 10 10 10 10 9 10 11 10 10 8 8 7 7 6 6 5 5 5 5
4 6 5 5 5 5 5 5 5 6 7 6 15 15 17 18 16 20 21 20 12 17 12 11 10 10 10 10 10 10 10 8 10 9 7 7 7 6 6 6 6 5 4
3 3 3 4 5 5 5 4 4 5 5 6 5 10 14 18 18 19 20 10 11 11 11 12 10 10 10 9 9 9 10 9 8 8 8 8 7 6 6 5 5 5 4
1 1 3 3 3 4 4 5 4 4 4 4 4 6 5 7 8 9 9 10 10 10 8 10 9 9 10 9 9 8 8 8 9 8 8 8 7 7 6 7 6 6 6
2 3 1 3 2 3 3 3 2 2 1 2 3 2 6 4 4 6 7 7 8 9 9 9 7 7 6 7 7 8 9 8 8 8 7 7 7 7 7 7 6 6 4
2 3 3 3 2 3 3 2 1 2 2 3 3 1 6 3 4 4 5 4 4 2 3 5 5 5 6 7 7 7 8 8 8 8 8 8 7 7 6 6 5 5 4
2 3 3 2 2 3 2 2 2 2 2 1 1 1 0 2 3 3 3 3 2 2 2 2 2 2 2 1 4 6 8 9 9 9 9 8 8 7 7 7 6 4 5
4 4 4 4 4 3 3 3 3 3 2 1 0 1 2 1 1 2 2 2 3 2 1 1 2 2 3 3 3 4 4 5 6 7 9 8 8 8 7 6 6 7 5
6 6 6 5 5 4 3 4 3 3 2 2 2 2 2 2 2 2 2 2 2 2 1 1 1 1 3 4 4 4 4 7 6 8 6 7 8 10 7 6 6 5 5
8 8 6 5 5 5 4 4 4 3 3 3 3 3 3 3 2 3 2 2 1 1 2 1 1 1 3 4 5 6 8 10 8 10 7 6 6 6 6 6 7 5 6
Wind_Direction
193 195 195 190 186 176 170 164 163 151 151 152 150 143 144 140 133 132 128 130 126 123 116 122 113 114 108 97 83 75 53 3 105 95 98 131 251 345 327 329 320 332 318
193 192 191 183 183 181 177 170 157 156 161 158 154 151 147 145 138 134 130 131 129 130 139 134 127 114 101 97 91 86 89 37 90 115 97 156 230 4 327 321 312 318 313
189 190 187 183 180 183 172 164 164 154 156 153 151 150 146 146 135 128 141 139 122 139 139 140 136 133 120 116 99 112 101 82 68 107 117 133 287 299 341 311 321 322 316
190 192 190 185 184 181 166 159 160 159 153 151 153 147 144 142 137 137 140 124 129 122 130 135 143 138 136 135 134 144 122 111 110 130 139 198 218 277 312 324 327 321 320
193 195 192 182 176 164 159 158 158 161 160 155 146 145 149 149 149 141 146 134 134 139 132 133 153 148 151 154 155 162 149 139 166 155 203 201 256 6 327 317 315 316 313
197 197 183 164 165 167 160 158 158 162 161 158 166 161 161 161 167 161 149 145 154 150 147 141 155 130 165 176 176 174 173 173 173 179 206 210 251 277 300 326 309 328 339
195 187 174 167 168 170 164 162 168 170 165 171 167 164 168 162 170 168 161 154 164 160 159 161 153 168 179 174 183 188 199 198 188 198 218 230 230 245 298 293 303 308 291
186 178 171 168 170 168 167 171 169 168 174 171 173 175 170 177 175 175 163 167 169 160 167 145 168 181 183 177 183 195 206 212 225 220 242 249 220 225 237 272 300 290 283
188 183 177 173 172 169 175 173 171 168 177 181 181 178 175 175 182 184 160 166 175 164 170 160 183 185 184 190 184 191 205 224 229 234 235 242 242 248 247 306 275 305 297
192 188 177 174 174 176 176 176 175 175 180 176 177 184 183 176 188 184 172 172 167 169 163 178 192 196 187 196 186 187 206 217 212 215 236 251 260 255 248 250 269 273 291
174 172 169 172 174 173 170 172 169 169 170 180 182 181 183 187 194 186 185 185 174 180 166 189 192 208 198 203 201 195 204 196 221 207 212 223 224 228 230 232 234 250 270
155 161 164 164 166 164 165 165 167 167 171 178 179 186 197 194 197 196 193 194 191 178 186 194 180 204 211 211 211 217 220 220 209 214 220 221 223 221 220 205 223 254 271
152 153 158 159 162 165 168 165 165 173 179 181 183 192 191 182 192 202 200 201 199 194 198 194 189 205 217 220 222 223 226 220 224 208 215 221 216 206 121 143 239 258 266
147 149 151 158 160 166 170 171 175 183 185 185 189 195 188 180 188 193 208 208 202 201 204 209 196 198 210 218 220 228 219 217 218 216 221 220 164 147 185 203 217 245 261
139 147 159 166 168 166 177 180 189 194 194 188 197 192 187 190 202 196 197 198 206 210 192 181 193 197 192 207 216 218 222 221 220 215 213 202 189 195 204 191 209 220 244
136 150 156 152 162 166 171 173 210 211 210 213 204 198 204 211 197 202 204 210 215 209 202 192 204 205 202 201 207 214 214 219 218 211 214 209 206 202 203 199 200 220 243
133 138 137 145 167 173 178 177 178 212 220 222 222 215 212 206 207 202 208 213 217 214 218 214 215 210 206 207 212 216 218 216 208 206 210 205 196 198 182 198 214 221 237
134 151 160 172 172 175 187 183 185 178 198 211 227 225 221 220 214 215 209 211 218 224 224 226 217 217 213 212 211 216 221 214 203 199 198 199 192 192 193 202 207 210 223
148 164 189 183 171 165 166 191 195 204 210 208 194 218 224 225 222 222 220 212 215 220 221 229 216 215 220 222 219 216 212 208 189 188 194 189 184 183 197 203 205 206 209
208 148 188 181 161 177 177 181 195 198 210 213 223 226 210 212 221 219 216 220 226 228 221 227 227 220 219 215 214 205 199 195 191 192 189 182 177 180 189 191 194 200 201
158 158 175 163 159 174 167 186 175 185 192 227 237 237 217 232 235 237 233 235 224 226 228 235 234 231 209 198 197 197 201 200 194 186 180 175 174 183 188 191 195 196 202
115 134 164 191 175 180 172 170 167 187 212 225 236 232 250 278 234 244 271 285 300 302 257 252 235 192 184 187 191 197 197 195 182 177 178 177 177 181 176 186 194 198 188
83 122 127 107 84 78 103 143 189 206 225 246 320 344 210 259 284 298 347 334 31 34 39 17 5 63 73 128 184 196 198 196 186 173 173 175 175 175 176 181 185 187 193
66 72 77 71 55 70 66 91 92 80 38 26 327 243 257 284 304 315 350 333 334 336 27 314 288 190 158 176 186 195 194 173 161 171 163 162 166 172 173 180 183 187 187
54 61 61 63 61 60 72 60 61 54 51 28 359 348 353 347 335 319 334 4 341 325 343 319 326 264 181 176 168 157 159 155 141 147 151 157 164 169 173 177 174 182 180
47 50 50 48 50 47 48 46 46 39 35 28 21 10 356 349 344 336 12 354 321 320 340 312 268 224 168 173 171 167 182 166 162 158 148 155 163 173 171 177 175 187 179